Time,TemperatureF,DewpointF,PressureIn,WindDirection,WindDirectionDegrees,WindSpeedMPH,WindSpeedGustMPH,Humidity,HourlyPrecipIn,Conditions,Clouds,dailyrainin,SoftwareType,DateUTC
2013-02-21 00:01:00,23.0,19.0,30.04,East,89,1.0,7.0,84,0.00,,,0.05,,2013-02-21 06:01:00,
2013-02-21 00:11:00,23.0,19.0,30.04,East,89,1.0,7.0,84,0.00,,,0.05,,2013-02-21 06:11:00,
2013-02-21 00:21:00,24.0,19.0,30.02,ESE,111,2.0,6.0,82,0.00,,,0.05,,2013-02-21 06:21:00,
2013-02-21 00:31:00,24.0,19.0,30.02,ESE,123,2.0,13.0,80,0.00,,,0.05,,2013-02-21 06:31:00,
2013-02-21 00:41:00,24.0,19.0,30.02,ESE,123,2.0,13.0,80,0.00,,,0.05,,2013-02-21 06:41:00,
2013-02-21 00:51:00,24.0,19.0,30.02,East,94,5.0,13.0,81,0.00,,,0.05,,2013-02-21 06:51:00,
2013-02-21 01:01:00,23.0,19.0,30.01,SE,134,4.0,9.0,83,0.00,,,0.05,,2013-02-21 07:01:00,
2013-02-21 01:11:00,23.0,19.0,30.01,SE,133,1.0,5.0,84,0.00,,,0.05,,2013-02-21 07:11:00,
2013-02-21 01:21:00,23.0,19.0,30.01,SE,133,1.0,5.0,84,0.00,,,0.05,,2013-02-21 07:21:00,
2013-02-21 01:32:00,23.0,19.0,30.02,SE,142,1.0,4.0,85,0.00,,,0.05,,2013-02-21 07:32:00,
2013-02-21 01:42:00,23.0,19.0,29.99,ENE,61,2.0,4.0,86,0.00,,,0.05,,2013-02-21 07:42:00,
2013-02-21 01:52:00,23.0,19.0,29.99,ENE,61,2.0,4.0,86,0.00,,,0.05,,2013-02-21 07:52:00,
2013-02-21 02:01:00,23.0,20.0,29.98,East,80,2.0,4.0,87,0.00,,,0.05,,2013-02-21 08:01:00,
2013-02-21 02:11:00,23.0,20.0,29.99,ESE,104,1.0,4.0,87,0.00,,,0.05,,2013-02-21 08:11:00,
2013-02-21 02:21:00,23.0,20.0,29.99,ESE,104,1.0,4.0,87,0.00,,,0.05,,2013-02-21 08:21:00,
2013-02-21 02:32:00,23.0,20.0,29.98,SE,135,3.0,7.0,87,0.00,,,0.05,,2013-02-21 08:32:00,
2013-02-21 02:42:00,23.0,20.0,29.98,SE,135,3.0,7.0,87,0.00,,,0.05,,2013-02-21 08:42:00,
2013-02-21 02:52:00,23.0,20.0,29.97,ENE,75,2.0,7.0,87,0.00,,,0.05,,2013-02-21 08:52:00,
2013-02-21 03:01:00,23.0,20.0,29.95,ESE,117,1.0,11.0,88,0.00,,,0.05,,2013-02-21 09:01:00,
2013-02-21 03:11:00,23.0,20.0,29.95,ESE,117,1.0,11.0,88,0.00,,,0.05,,2013-02-21 09:11:00,
2013-02-21 03:22:00,23.0,20.0,29.92,SSE,160,3.0,6.0,88,0.00,,,0.05,,2013-02-21 09:22:00,
2013-02-21 03:31:00,23.0,20.0,29.92,ESE,107,4.0,10.0,88,0.00,,,0.05,,2013-02-21 09:31:00,
2013-02-21 03:41:00,23.0,20.0,29.91,East,82,3.0,7.0,88,0.00,,,0.05,,2013-02-21 09:41:00,
2013-02-21 03:51:00,23.0,20.0,29.91,East,82,3.0,7.0,88,0.00,,,0.05,,2013-02-21 09:51:00,
2013-02-21 04:01:00,23.0,20.0,29.90,ESE,114,3.0,11.0,88,0.00,,,0.05,,2013-02-21 10:01:00,
2013-02-21 04:11:00,23.0,20.0,29.90,ESE,114,3.0,11.0,88,0.00,,,0.05,,2013-02-21 10:11:00,
2013-02-21 04:21:00,23.0,20.0,29.89,ESE,107,4.0,14.0,88,0.00,,,0.05,,2013-02-21 10:21:00,
2013-02-21 04:31:00,23.0,20.0,29.90,ENE,71,4.0,13.0,89,0.00,,,0.05,,2013-02-21 10:31:00,
2013-02-21 04:41:00,23.0,20.0,29.90,ENE,71,4.0,13.0,89,0.00,,,0.05,,2013-02-21 10:41:00,
2013-02-21 04:51:00,23.0,20.0,29.89,East,81,3.0,11.0,89,0.00,,,0.05,,2013-02-21 10:51:00,
2013-02-21 05:01:00,23.0,20.0,29.89,ESE,111,3.0,9.0,89,0.00,,,0.05,,2013-02-21 11:01:00,
2013-02-21 05:11:00,23.0,20.0,29.89,ESE,111,3.0,9.0,89,0.00,,,0.05,,2013-02-21 11:11:00,
2013-02-21 05:21:00,23.0,20.0,29.87,ENE,74,2.0,6.0,89,0.00,,,0.05,,2013-02-21 11:21:00,
2013-02-21 05:31:00,23.0,21.0,29.87,East,82,2.0,7.0,90,0.00,,,0.05,,2013-02-21 11:31:00,
2013-02-21 05:41:00,23.0,21.0,29.87,East,82,2.0,7.0,90,0.00,,,0.05,,2013-02-21 11:41:00,
2013-02-21 05:51:00,23.0,21.0,29.88,SE,146,2.0,9.0,90,0.00,,,0.05,,2013-02-21 11:51:00,
2013-02-21 06:01:00,23.0,21.0,29.86,ESE,110,3.0,7.0,90,0.00,,,0.05,,2013-02-21 12:01:00,
2013-02-21 06:11:00,23.0,21.0,29.86,ESE,110,3.0,7.0,90,0.00,,,0.05,,2013-02-21 12:11:00,
2013-02-21 06:21:00,23.0,21.0,29.85,ESE,106,2.0,5.0,90,0.00,,,0.05,,2013-02-21 12:21:00,
2013-02-21 06:32:00,22.0,20.0,29.84,ENE,77,2.0,7.0,90,0.00,,,0.05,,2013-02-21 12:32:00,
2013-02-21 06:42:00,22.0,20.0,29.86,East,90,3.0,6.0,90,0.00,,,0.05,,2013-02-21 12:42:00,
2013-02-21 06:52:00,22.0,20.0,29.86,East,90,3.0,6.0,90,0.00,,,0.05,,2013-02-21 12:52:00,
2013-02-21 07:01:00,22.0,20.0,29.87,ENE,78,1.0,7.0,90,0.00,,,0.05,,2013-02-21 13:01:00,
2013-02-21 07:12:00,22.0,20.0,29.87,ENE,78,1.0,7.0,90,0.00,,,0.05,,2013-02-21 13:12:00,
2013-02-21 07:22:00,22.0,20.0,29.85,ESE,105,3.0,8.0,90,0.00,,,0.05,,2013-02-21 13:22:00,
2013-02-21 07:32:00,22.0,20.0,29.82,East,93,5.0,8.0,90,0.00,,,0.05,,2013-02-21 13:32:00,
2013-02-21 07:41:00,22.0,20.0,29.82,East,93,5.0,8.0,90,0.00,,,0.05,,2013-02-21 13:41:00,
2013-02-21 07:51:00,22.0,20.0,29.84,ESE,114,4.0,8.0,90,0.00,,,0.05,,2013-02-21 13:51:00,
2013-02-21 08:02:00,22.0,20.0,29.84,East,96,3.0,6.0,90,0.00,,,0.05,,2013-02-21 14:02:00,
2013-02-21 08:11:00,22.0,20.0,29.84,East,96,3.0,6.0,90,0.00,,,0.05,,2013-02-21 14:11:00,
2013-02-21 08:21:00,22.0,20.0,29.84,ENE,61,3.0,6.0,90,0.00,,,0.05,,2013-02-21 14:21:00,
2013-02-21 08:32:00,22.0,20.0,29.85,ENE,71,2.0,5.0,90,0.00,,,0.05,,2013-02-21 14:32:00,
2013-02-21 08:42:00,22.0,20.0,29.85,ENE,71,2.0,5.0,90,0.00,,,0.05,,2013-02-21 14:42:00,
2013-02-21 08:52:00,22.0,20.0,29.85,ENE,76,3.0,5.0,90,0.00,,,0.05,,2013-02-21 14:52:00,
2013-02-21 09:01:00,22.0,20.0,29.83,ESE,113,4.0,8.0,90,0.00,,,0.05,,2013-02-21 15:01:00,
2013-02-21 09:12:00,22.0,20.0,29.83,ESE,113,4.0,8.0,90,0.00,,,0.05,,2013-02-21 15:12:00,
2013-02-21 09:21:00,22.0,20.0,29.83,ENE,59,4.0,9.0,90,0.00,,,0.05,,2013-02-21 15:21:00,
2013-02-21 09:32:00,22.0,20.0,29.81,ENE,60,4.0,10.0,90,0.00,,,0.05,,2013-02-21 15:32:00,
2013-02-21 09:42:00,22.0,20.0,29.81,ENE,60,4.0,10.0,90,0.00,,,0.05,,2013-02-21 15:42:00,
2013-02-21 09:51:00,22.0,19.0,29.81,ENE,64,5.0,8.0,89,0.00,,,0.05,,2013-02-21 15:51:00,
2013-02-21 10:01:00,22.0,19.0,29.81,ENE,64,5.0,8.0,89,0.00,,,0.05,,2013-02-21 16:01:00,
2013-02-21 10:12:00,22.0,19.0,29.81,ENE,64,5.0,8.0,89,0.00,,,0.05,,2013-02-21 16:12:00,
2013-02-21 11:11:00,23.0,21.0,29.82,ENE,63,2.0,5.0,90,0.00,,,0.05,,2013-02-21 17:11:00,
2013-02-21 11:21:00,23.0,21.0,29.82,ENE,63,2.0,5.0,90,0.00,,,0.05,,2013-02-21 17:21:00,
2013-02-21 11:32:00,23.0,21.0,29.82,ENE,67,2.0,7.0,90,0.00,,,0.05,,2013-02-21 17:32:00,
2013-02-21 11:42:00,23.0,21.0,29.82,ENE,67,2.0,7.0,90,0.00,,,0.05,,2013-02-21 17:42:00,
2013-02-21 11:52:00,23.0,20.0,29.81,ENE,75,2.0,7.0,89,0.00,,,0.05,,2013-02-21 17:52:00,
2013-02-21 12:02:00,23.0,20.0,29.79,ENE,60,3.0,7.0,89,0.00,,,0.05,,2013-02-21 18:02:00,
2013-02-21 12:11:00,23.0,20.0,29.79,ENE,60,3.0,7.0,89,0.00,,,0.05,,2013-02-21 18:11:00,
2013-02-21 12:22:00,24.0,21.0,29.78,NE,44,4.0,10.0,89,0.00,,,0.05,,2013-02-21 18:22:00,
2013-02-21 12:31:00,24.0,21.0,29.76,ENE,69,4.0,10.0,89,0.00,,,0.05,,2013-02-21 18:31:00,
2013-02-21 12:42:00,24.0,21.0,29.76,ENE,69,4.0,10.0,89,0.00,,,0.05,,2013-02-21 18:42:00,
2013-02-21 12:51:00,24.0,21.0,29.76,East,92,4.0,10.0,89,0.00,,,0.05,,2013-02-21 18:51:00,
2013-02-21 13:01:00,24.0,21.0,29.76,ENE,58,4.0,10.0,89,0.00,,,0.05,,2013-02-21 19:01:00,
2013-02-21 13:12:00,24.0,21.0,29.76,ENE,58,4.0,10.0,89,0.00,,,0.05,,2013-02-21 19:12:00,
2013-02-21 13:21:00,24.0,21.0,29.77,ENE,63,5.0,9.0,88,0.00,,,0.05,,2013-02-21 19:21:00,
2013-02-21 13:31:00,23.0,20.0,29.77,ENE,66,2.0,6.0,89,0.00,,,0.05,,2013-02-21 19:31:00,
2013-02-21 13:41:00,23.0,20.0,29.77,ENE,66,2.0,6.0,89,0.00,,,0.05,,2013-02-21 19:41:00,
2013-02-21 13:51:00,23.0,20.0,29.77,NE,35,3.0,9.0,89,0.00,,,0.05,,2013-02-21 19:51:00,
2013-02-21 14:01:00,23.0,20.0,29.76,SSE,155,3.0,9.0,89,0.00,,,0.05,,2013-02-21 20:01:00,
2013-02-21 14:11:00,23.0,20.0,29.75,NE,56,2.0,7.0,89,0.00,,,0.05,,2013-02-21 20:11:00,
2013-02-21 14:21:00,23.0,20.0,29.75,NE,56,2.0,7.0,89,0.00,,,0.05,,2013-02-21 20:21:00,
2013-02-21 14:32:00,23.0,20.0,29.75,NE,50,4.0,9.0,89,0.00,,,0.05,,2013-02-21 20:32:00,
2013-02-21 14:41:00,23.0,20.0,29.75,NE,50,4.0,9.0,89,0.00,,,0.05,,2013-02-21 20:41:00,
2013-02-21 14:52:00,24.0,21.0,29.75,ENE,78,3.0,7.0,89,0.00,,,0.05,,2013-02-21 20:52:00,
2013-02-21 15:02:00,24.0,21.0,29.74,ENE,57,3.0,6.0,89,0.00,,,0.05,,2013-02-21 21:02:00,
2013-02-21 15:11:00,24.0,21.0,29.73,NE,48,0.0,9.0,89,0.00,,,0.05,,2013-02-21 21:11:00,
2013-02-21 15:21:00,24.0,21.0,29.73,NE,48,0.0,9.0,89,0.00,,,0.05,,2013-02-21 21:21:00,
2013-02-21 15:31:00,23.0,20.0,29.73,NNE,13,1.0,5.0,89,0.00,,,0.05,,2013-02-21 21:31:00,
2013-02-21 15:42:00,23.0,20.0,29.72,NE,56,2.0,6.0,89,0.00,,,0.02,,2013-02-21 21:42:00,
2013-02-21 15:51:00,23.0,20.0,29.72,NE,56,2.0,6.0,89,0.00,,,0.02,,2013-02-21 21:51:00,
2013-02-21 16:01:00,23.0,20.0,29.72,NE,51,2.0,6.0,89,0.00,,,0.02,,2013-02-21 22:01:00,
2013-02-21 16:11:00,23.0,20.0,29.72,NE,51,2.0,6.0,89,0.00,,,0.02,,2013-02-21 22:11:00,
2013-02-21 16:21:00,24.0,21.0,29.72,NNE,32,1.0,5.0,89,0.00,,,0.02,,2013-02-21 22:21:00,
2013-02-21 16:31:00,25.0,22.0,29.71,ENE,59,2.0,5.0,89,0.00,,,0.02,,2013-02-21 22:31:00,
2013-02-21 16:42:00,25.0,22.0,29.72,NW,322,3.0,5.0,89,0.00,,,0.00,,2013-02-21 22:42:00,
2013-02-21 16:52:00,25.0,22.0,29.72,NW,322,3.0,5.0,89,0.00,,,0.00,,2013-02-21 22:52:00,
2013-02-21 17:01:00,24.0,21.0,29.72,NE,49,0.0,5.0,88,0.00,,,0.00,,2013-02-21 23:01:00,
2013-02-21 17:11:00,24.0,21.0,29.72,NE,49,0.0,5.0,88,0.00,,,0.00,,2013-02-21 23:11:00,
2013-02-21 17:21:00,24.0,21.0,29.72,North,5,1.0,3.0,89,0.00,,,0.00,,2013-02-21 23:21:00,
2013-02-21 17:32:00,23.0,20.0,29.73,NNW,329,3.0,6.0,89,0.00,,,0.00,,2013-02-21 23:32:00,
2013-02-21 17:41:00,23.0,20.0,29.73,NNW,329,3.0,6.0,89,0.00,,,0.00,,2013-02-21 23:41:00,
2013-02-21 17:52:00,22.0,19.0,29.75,North,350,3.0,5.0,89,0.00,,,0.00,,2013-02-21 23:52:00,
2013-02-21 18:01:00,22.0,19.0,29.75,NNW,333,4.0,9.0,89,0.00,,,0.00,,2013-02-22 00:01:00,
2013-02-21 18:11:00,22.0,19.0,29.75,NNW,333,4.0,9.0,89,0.00,,,0.00,,2013-02-22 00:11:00,
2013-02-21 18:21:00,22.0,19.0,29.76,North,5,3.0,7.0,89,0.00,,,0.00,,2013-02-22 00:21:00,
2013-02-21 18:32:00,22.0,20.0,29.76,NW,309,4.0,9.0,90,0.00,,,0.00,,2013-02-22 00:32:00,
2013-02-21 18:42:00,22.0,20.0,29.76,NW,309,4.0,9.0,90,0.00,,,0.00,,2013-02-22 00:42:00,
2013-02-21 18:51:00,21.0,19.0,29.77,NNW,335,3.0,7.0,90,0.00,,,0.00,,2013-02-22 00:51:00,
2013-02-21 19:01:00,21.0,19.0,29.77,NW,321,5.0,10.0,90,0.00,,,0.00,,2013-02-22 01:01:00,
2013-02-21 19:11:00,21.0,19.0,29.77,NW,321,5.0,10.0,90,0.00,,,0.00,,2013-02-22 01:11:00,
2013-02-21 19:21:00,21.0,18.0,29.78,NNW,335,4.0,7.0,89,0.00,,,0.00,,2013-02-22 01:21:00,
2013-02-21 19:32:00,21.0,19.0,29.78,NNW,341,4.0,6.0,90,0.00,,,0.00,,2013-02-22 01:32:00,
2013-02-21 19:42:00,21.0,19.0,29.78,NNW,341,4.0,6.0,90,0.00,,,0.00,,2013-02-22 01:42:00,
2013-02-21 19:51:00,21.0,19.0,29.78,North,360,4.0,8.0,90,0.00,,,0.00,,2013-02-22 01:51:00,
2013-02-21 20:02:00,20.0,18.0,29.78,North,9,4.0,6.0,90,0.00,,,0.00,,2013-02-22 02:02:00,
2013-02-21 20:11:00,20.0,18.0,29.78,North,9,4.0,6.0,90,0.00,,,0.00,,2013-02-22 02:11:00,
2013-02-21 20:21:00,20.0,17.0,29.78,NNW,331,4.0,7.0,89,0.00,,,0.00,,2013-02-22 02:21:00,
2013-02-21 20:32:00,20.0,17.0,29.79,NNW,333,3.0,7.0,89,0.00,,,0.00,,2013-02-22 02:32:00,
2013-02-21 20:42:00,20.0,17.0,29.80,WNW,295,4.0,7.0,89,0.00,,,0.00,,2013-02-22 02:42:00,
2013-02-21 20:52:00,20.0,17.0,29.80,WNW,295,4.0,7.0,89,0.00,,,0.00,,2013-02-22 02:52:00,
2013-02-21 21:01:00,19.0,16.0,29.80,NW,314,4.0,9.0,89,0.00,,,0.00,,2013-02-22 03:01:00,
2013-02-21 21:11:00,19.0,16.0,29.80,NW,314,4.0,9.0,89,0.00,,,0.00,,2013-02-22 03:11:00,
2013-02-21 21:21:00,19.0,16.0,29.80,WNW,299,3.0,6.0,89,0.00,,,0.00,,2013-02-22 03:21:00,
2013-02-21 21:32:00,18.0,15.0,29.81,NNW,346,3.0,6.0,89,0.00,,,0.00,,2013-02-22 03:32:00,
2013-02-21 21:42:00,18.0,15.0,29.81,NNW,346,3.0,6.0,89,0.00,,,0.00,,2013-02-22 03:42:00,
2013-02-21 21:51:00,18.0,15.0,29.81,NW,312,1.0,5.0,89,0.00,,,0.00,,2013-02-22 03:51:00,
2013-02-21 22:01:00,17.0,14.0,29.81,NW,312,2.0,10.0,88,0.00,,,0.00,,2013-02-22 04:01:00,
2013-02-21 22:11:00,18.0,15.0,29.82,NW,306,3.0,9.0,89,0.00,,,0.00,,2013-02-22 04:11:00,
2013-02-21 22:21:00,18.0,15.0,29.82,NW,306,3.0,9.0,89,0.00,,,0.00,,2013-02-22 04:21:00,
2013-02-21 22:32:00,19.0,16.0,29.83,WNW,301,3.0,9.0,89,0.00,,,0.00,,2013-02-22 04:32:00,
2013-02-21 22:42:00,19.0,16.0,29.83,WNW,301,3.0,9.0,89,0.00,,,0.00,,2013-02-22 04:42:00,
2013-02-21 22:51:00,20.0,17.0,29.83,NW,325,4.0,12.0,89,0.00,,,0.00,,2013-02-22 04:51:00,
2013-02-21 23:02:00,20.0,17.0,29.84,NNW,333,4.0,9.0,89,0.00,,,0.00,,2013-02-22 05:02:00,
2013-02-21 23:12:00,20.0,17.0,29.84,NNW,333,4.0,9.0,89,0.00,,,0.00,,2013-02-22 05:12:00,
2013-02-21 23:22:00,20.0,17.0,29.84,NW,326,5.0,7.0,89,0.00,,,0.00,,2013-02-22 05:22:00,
2013-02-21 23:32:00,20.0,17.0,29.85,NW,311,3.0,9.0,89,0.00,,,0.00,,2013-02-22 05:32:00,
2013-02-21 23:42:00,20.0,17.0,29.85,NW,311,3.0,9.0,89,0.00,,,0.00,,2013-02-22 05:42:00,
2013-02-21 23:52:00,19.0,16.0,29.85,NNW,331,4.0,6.0,89,0.00,,,0.00,,2013-02-22 05:52:00,